Lid_Strength_Index
0 -0 -0 -0 -0 -1 -0 0 0 0 0 0 -0 0 0 0 -0 -0 -0 -1 -1 -1 -2 -2 -1 -1 -1 -1 -2 -2 -2 -2 -1 -2 -2 -2 -2 -2 -2 -1 -1 -1 -1
-0 -0 -0 0 -0 -0 -0 -0 0 0 0 0 0 0 0 -0 -0 -0 -0 -1 -1 -1 -1 -2 -1 -1 -2 -2 -2 -2 -2 -1 -2 -1 -1 -2 -2 -2 -1 -1 -1 -2 -1
-0 -0 0 0 -0 -0 -0 -0 -0 -0 0 0 1 0 -0 -0 0 -0 -0 -0 -1 -1 -2 -1 -2 -2 -2 -2 -2 -2 -1 -2 -2 -1 -2 -2 -2 -2 -1 -2 -2 -1 -1
-1 -0 0 0 -0 -0 0 0 1 1 1 1 1 1 0 0 0 0 -0 -0 -0 -1 -1 -2 -1 -1 -2 -2 -2 -2 -1 -1 -1 -2 -2 -2 -1 -2 -2 -2 -1 -1 -0
-1 -0 0 0 -0 0 0 1 1 1 1 1 1 1 1 1 0 -0 -0 -0 -0 -0 -0 -1 -1 -1 -1 -2 -2 -2 -2 -1 -1 -2 -2 -1 -1 -2 -1 -1 -1 -0 0
-1 -0 0 0 -0 0 1 1 1 1 1 1 1 1 1 1 0 0 0 -0 -0 0 -0 -0 -0 -1 -1 -1 -2 -2 -2 -1 -1 -1 -2 -2 -2 -1 -1 -1 -1 0 0
-0 -0 0 0 0 1 1 1 1 1 2 1 2 2 2 1 1 1 1 1 1 0 -0 0 0 0 -0 -1 -1 -2 -1 -1 -1 -1 -1 -1 -2 -1 -1 -1 0 1 1
-0 -0 0 1 0 1 1 1 1 2 2 1 3 3 5 4 2 2 1 1 1 0 0 -0 1 0 0 0 -1 -2 -2 -2 -2 -1 -1 -1 -1 -1 -0 0 1 1 1
-0 -0 0 0 0 0 1 1 1 2 3 2 1 3 6 7 4 2 1 1 1 0 0 0 1 0 0 -0 -1 -1 -2 -2 -1 -1 -1 -0 -0 -0 0 1 1 1 1
-0 -0 -0 0 0 0 1 1 1 1 2 3 2 1 2 3 6 6 2 1 1 1 0 1 1 0 0 -0 -1 -1 -1 -1 -1 -1 -0 -0 -0 0 0 1 1 0 0
-0 -0 -0 0 0 0 0 1 1 1 1 2 2 2 2 2 2 4 6 4 2 1 1 1 1 0 -0 -0 -0 -0 -0 -1 -1 -1 -1 -0 0 0 0 1 0 -1 -1
0 -0 0 0 0 0 1 1 0 1 1 1 1 2 3 3 4 4 5 4 4 2 1 1 0 1 0 -0 -1 -0 0 0 1 0 0 -0 -0 -0 -0 -0 -1 -1 -1
1 1 0 0 0 0 0 0 1 1 1 1 1 2 1 2 2 2 3 4 4 3 2 1 0 0 -0 -0 -1 -0 0 1 1 1 1 1 0 -1 -1 -2 -2 -1 -1
1 0 0 0 0 0 0 0 1 1 1 1 1 1 1 1 1 1 3 4 5 5 3 3 0 0 0 -0 -1 0 1 1 2 2 1 1 1 -1 -2 -2 -2 -2 -2
1 0 0 0 0 0 0 0 1 1 1 1 1 1 1 1 1 1 2 2 4 6 5 3 2 0 -0 -0 -0 0 1 1 1 1 2 0 -0 -1 -1 -1 -1 -1 -1
0 1 1 1 0 0 0 1 1 1 1 1 1 1 1 1 2 2 2 2 2 3 5 2 2 0 -0 -1 -1 -0 0 1 0 1 1 1 1 1 0 0 0 0 1
1 1 1 1 1 1 1 1 1 1 1 1 1 1 2 1 2 3 2 2 2 3 4 3 2 0 1 1 0 -0 -0 0 1 0 0 1 2 2 1 1 1 1 2
0 1 1 1 1 1 1 1 1 1 1 2 1 2 2 2 3 3 2 3 3 3 2 4 3 1 1 1 2 0 1 1 1 1 1 2 2 2 3 3 3 3 3
1 0 1 1 1 1 1 1 1 1 1 1 2 2 3 3 3 3 3 3 3 1 2 2 3 2 2 2 1 0 0 0 0 0 2 2 2 3 3 3 4 4 5
1 1 1 1 1 1 1 1 1 1 1 1 1 2 2 2 2 2 3 3 1 2 2 2 2 2 2 1 1 2 2 1 1 2 2 3 3 3 3 4 4 4 5
1 1 1 1 1 1 1 1 1 1 1 1 1 1 2 2 2 2 1 1 1 2 2 2 3 3 3 3 3 2 2 2 1 0 3 4 5 5 6 4 4 4 5
1 1 1 1 1 4 8 5 1 1 1 1 1 1 2 4 4 5 4 4 2 2 2 3 3 3 3 2 2 2 2 3 4 0 2 2 5 6 6 6 5 6 7
1 1 1 1 2 3 8 7 5 1 1 2 2 2 2 2 3 3 5 4 4 5 4 1 3 3 3 2 2 2 2 3 3 2 2 3 1 2 2 3 5 7 7
1 1 1 1 1 4 7 7 4 1 1 1 1 1 1 1 1 1 1 1 1 1 1 1 1 2 3 3 1 1 2 2 1 1 1 3 1 2 1 1 4 6 7
1 1 1 1 1 2 8 8 3 1 1 1 1 1 1 1 7 7 1 2 1 2 6 7 8 8 9 10 8 2 2 3 4 3 1 2 2 3 2 2 2 6 7
1 1 1 1 2 1 8 9 6 1 2 1 1 4 7 3 8 7 1 2 2 2 3 5 5 7 9 6 9 5 5 6 6 7 5 6 7 7 8 5 7 7 7